Simultaneous Nadir Overpasses (SNOs) Predictions

Prediction of SNOs between AQUA and GOES-15 Satellite Orbit:

Table of predicted SNOs for the next 14.0 days since TLE Epoch: 11/4/2023
Index Date Time (AQUA) AQUA Lat,Lon GOES-15 Lat,Lon Distance(km) Time Diff (sec)
1 11/05/2023 09:45:01 0.02, 62.82 -0.09, 62.43 45.27 80
2 11/05/2023 22:05:35 0.98, 57.83 0.07, 62.21 496.62 80
3 11/07/2023 21:50:42 0.05, 61.45 0.08, 61.45 2.53 80
4 11/09/2023 21:35:48 -0.86, 65.07 0.09, 60.69 498.27 80
5 11/10/2023 09:56:30 -0.19, 60.05 -0.07, 60.52 53.90 80
6 11/12/2023 09:41:35 0.74, 63.67 -0.08, 59.76 444.24 80
7 11/12/2023 22:02:08 0.22, 58.68 0.05, 59.53 96.76 80
8 11/14/2023 21:47:12 -0.71, 62.30 0.07, 58.79 400.07 80
9 11/15/2023 10:07:53 -0.36, 57.29 -0.05, 58.64 153.75 80
10 11/17/2023 09:52:56 0.58, 60.92 -0.06, 57.90 342.99 80
11 11/17/2023 22:13:29 0.41, 55.93 0.03, 57.66 196.96 80
